Flag for U.S.A. Weather past 2 weeks in Lowell, Massachusetts, U.S.A.

Now
55 °F

Clear.


Feels Like: 55 °F
Forecast: 57 / 80 °F
Wind: 3 mph from West

Location: Hanscom Field

Current Time: Aug 28, 2015 at 4:37:24 AM

Latest Report: Aug 28, 2015 at 3:56 AM


Visibility: 10 mi

Pressure: 30.12 "Hg

Humidity: 93%

Dew point: 53 °F

Location of LowellLocation

Historic Weather in Lowell — Graph

°F

Lowell temperature yesterday

Maximum temperature yesterday: 80 °F (at 1:56 PM)
Minimum temperature yesterday: 56 °F (at 5:56 AM)
Average temperature yesterday: 67 °F

Past Weeks' High & Low Weather Summary

 TemperatureHumidityPressure
High92 °F (Aug 18, 12:56 PM)97% (Aug 13, 5:56 AM)30.16 "Hg (Aug 13, 5:56 AM)
Low53 °F (Aug 14, 5:56 AM)35% (Aug 13, 2:56 PM)29.85 "Hg (Aug 25, 6:56 PM)
Average74 °F74%30.03 "Hg
* Reported Aug 13 2:56 AM — Aug 28 2:56 AM, Lowell, Weather by CustomWeather, © 2015

Note: Actual official high and low records may vary slightly from our data, if they occured in-between our weather recording intervals... More about our weather records

Advertising

Lowell weather history for previous 24 hours

 ConditionsComfort  
Time TempWeatherWind HumidityBarometerVisibility
2:56 AM
Fri, Aug 28
55 °FClear.No wind90%30.11 "Hg10 mi
1:56 AM54 °FClear.No wind93%30.11 "Hg10 mi
12:56 AM55 °FClear.No wind90%30.11 "Hg10 mi
11:56 PM
Thu, Aug 27
57 °FClear.No wind87%30.10 "Hg10 mi
10:56 PM59 °FClear.No wind84%30.09 "Hg10 mi
9:56 PM63 °FClear.No wind73%30.09 "Hg10 mi
8:56 PM66 °FClear.5 mph63%30.07 "Hg10 mi
7:56 PM69 °FScattered clouds.5 mph55%30.04 "Hg10 mi
6:56 PM73 °FOvercast.9 mph46%30.03 "Hg10 mi
5:56 PM75 °FScattered clouds.12 mph45%30.00 "Hg10 mi
4:56 PM76 °FPartly sunny.7 mph47%29.99 "Hg10 mi
3:56 PM75 °FOvercast.10 mph50%29.99 "Hg10 mi
2:56 PM76 °FScattered clouds.9 mph43%29.99 "Hg10 mi
1:56 PM80 °FPartly sunny.13 mph39%29.99 "Hg10 mi
12:56 PM78 °FScattered clouds.10 mph42%30.00 "Hg10 mi
11:56 AM78 °FSunny.N/A42%30.01 "Hg10 mi
10:56 AM75 °FSunny.N/A45%30.02 "Hg10 mi
9:56 AM72 °FSunny.9 mph53%30.03 "Hg10 mi
8:56 AM69 °FSunny.9 mph59%30.02 "Hg10 mi
7:56 AM65 °FSunny.3 mph73%30.01 "Hg10 mi
6:56 AM59 °FClear.5 mph84%30.00 "Hg10 mi
5:56 AM56 °FClear.5 mph90%29.98 "Hg10 mi
4:56 AM58 °FClear.No wind87%29.97 "Hg10 mi
Weather by CustomWeather, © 2015

See weather overviewHow to use our weather pages